Regional Weather Roundup
Issued by NWS Raleigh/Durham, NC

Home | Current Version | Previous Version | Text Only | Print | Product List | Glossary On
Versions: 1 2 3 4 5 6 7 8 9 10 11 12 13 14 15 16 17 18 19 20 21 22 23 24 25 26 27 28 29 30 31 32 33 34 35 36 37 38 39 40 41 42 43 44 45 46 47 48 49 50
146
ASUS42 KRAH 121210
RWRRAH
NORTH CAROLINA WEATHER ROUNDUP
NATIONAL WEATHER SERVICE RALEIGH NC
700 AM EST FRI FEB 12 2016

NOTE: "FAIR" INDICATES FEW OR NO CLOUDS BELOW 12,000 FEET WITH NO
SIGNIFICANT WEATHER AND/OR OBSTRUCTIONS TO VISIBILITY.

NCZ001-053-055-056-065-067-121300-
WESTERN NORTH CAROLINA

CITY           SKY/WX    TMP DP  RH WIND       PRES   REMARKS
ASHEVILLE      PTCLDY    27  20  75 S5        30.13S WCI  22
JEFFERSON      CLOUDY    22  11  64 S3        30.06F
MORGANTON      PTCLDY    27  14  57 CALM      30.23S
HICKORY        PTCLDY    25   9  50 NE3       30.18F
RUTHERFORDTON  CLEAR     29  17  60 N3        30.19S
MOUNT AIRY     PTCLDY    26   8  46 NE5       30.22F WCI  20
BOONE          PTCLDY    24  11  60 CALM      30.08S
$$

NCZ021-022-025-041-071-084-088-121300-
CENTRAL NORTH CAROLINA

CITY           SKY/WX    TMP DP  RH WIND       PRES   REMARKS
CHARLOTTE      CLOUDY    31   6  35 E7        30.20F WCI  24
GREENSBORO     MOCLDY    24   5  44 NE6       30.22S WCI  17
WINSTON-SALEM  PTCLDY    25   7  46 NE6       30.23S WCI  18
RALEIGH-DURHAM MOCLDY    26   4  38 E7        30.27S WCI  18
FORT BRAGG     CLOUDY    29   8  41 NE6       30.26R WCI  23
FAYETTEVILLE   CLOUDY    30   9  41 NE5       30.26R WCI  25
BURLINGTON     PTCLDY    23   6  48 NE5       30.24F WCI  17
LAURINBURG     MOCLDY    30   9  41 E9        30.26R WCI  22
$$

NCZ011-015-027-028-043-044-047-080-103-121300-
NORTHEASTERN NORTH CAROLINA

CITY           SKY/WX    TMP DP  RH WIND       PRES   REMARKS
ROCKY MT-WILSO CLOUDY    26   9  48 NE7       30.30R WCI  18
GREENVILLE     CLOUDY    28  14  54 E6        30.31S WCI  22
WASHINGTON     CLOUDY    27  16  62 NE6       30.30F WCI  21
ELIZABETH CITY PTCLDY    26  16  65 N9        30.32S WCI  17
MANTEO         PTCLDY    32  20  63 NE9       30.31R WCI  24
CAPE HATTERAS  PTCLDY    35  21  56 NE10      30.28F WCI  27
$$

NCZ078-087-090-091-093-098-101-121300-
SOUTHEASTERN NORTH CAROLINA

CITY           SKY/WX    TMP DP  RH WIND       PRES   REMARKS
LUMBERTON      CLOUDY    31  12  45 NE10      30.24S WCI  22
GOLDSBORO      CLOUDY    28  12  50 NE10      30.27R WCI  19
KINSTON        CLOUDY    28  16  59 NE7       30.30S WCI  21
KENANSVILLE    CLOUDY    29  13  51 CALM      30.29R
NEW BERN       CLOUDY    29  17  61 E6        30.29F WCI  23
CHERRY POINT   CLOUDY    32  17  54 NE8       30.28F WCI  25
BEAUFORT       CLOUDY    34  17  50 NE8       30.28S WCI  27
JACKSONVILLE   CLOUDY    32  14  47 NE10      30.27S WCI  24
WILMINGTON     CLOUDY    35  18  49 NE9       30.25S WCI  28
$$





USA.gov is the U.S. government's official web portal to all federal, state and local government web resources and services.